FW7017 Weather Reports


time (UTC)temp
C
wind
direction
speed
KPH
gust
KPH
rain 1hr
cm
rain 24hr
cm
rain mn
cm
humidity
%
barometer
mb
20260503193828 15 188 6.4 9.7 0.00 0.00 0.00 71 1012.7
20260503193324 15 182 6.4 12.9 0.00 0.00 0.00 72 1012.5
20260503192820 15 153 6.4 11.3 0.00 0.00 0.00 69 1012.4
20260503192315 15 152 9.7 12.9 0.00 0.00 0.00 66 1012.5
20260503191811 16 193 8.0 9.7 0.00 0.00 0.00 66 1012.4
20260503191309 16 163 9.7 9.7 0.00 0.00 0.00 63 1012.3
20260503190805 16 145 11.3 11.3 0.00 0.00 0.00 63 1012.3
20260503190303 16 138 12.9 14.5 0.00 0.00 0.00 59 1012.2
20260503185800 16 175 6.4 8.0 0.00 0.00 0.00 63 1012.4
20260503185255 16 179 4.8 9.7 0.00 0.00 0.00 63 1012.3
20260503184755 16 179 4.8 8.0 0.00 0.00 0.00 59 1012.3
20260503184252 16 174 8.0 9.7 0.00 0.00 0.00 61 1012.3
20260503183748 16 184 6.4 9.7 0.00 0.00 0.00 67 1012.3
20260503183246 15 161 8.0 8.0 0.00 0.00 0.00 65 1012.4
20260503182743 15 193 3.2 4.8 0.00 0.00 0.00 63 1012.3
20260503182242 15 191 8.0 9.7 0.00 0.00 0.00 68 1012.2
20260503181738 15 172 6.4 14.5 0.00 0.00 0.00 67 1012.3
20260503181235 15 219 6.4 9.7 0.00 0.00 0.00 66 1012.2
20260503180731 15 178 6.4 8.0 0.00 0.00 0.00 69 1012.4
20260503180230 15 167 8.0 9.7 0.00 0.00 0.00 70 1012.3
20260503175726 15 208 3.2 9.7 0.00 0.00 0.00 70 1012.3
20260503175224 15 178 6.4 9.7 0.00 0.00 0.00 69 1012.4
20260503174720 15 173 8.0 8.0 0.00 0.00 0.00 68 1012.4
20260503174218 15 186 8.0 11.3 0.00 0.00 0.00 69 1012.3
20260503173713 15 163 8.0 11.3 0.00 0.00 0.00 69 1012.5
20260503173209 15 171 4.8 9.7 0.00 0.00 0.00 67 1012.2
20260503172706 15 174 6.4 14.5 0.00 0.00 0.00 65 1012.3
20260503172203 15 188 6.4 9.7 0.00 0.00 0.00 68 1012.3
20260503171659 15 181 6.4 6.4 0.00 0.00 0.00 71 1012.3
20260503171157 14 151 8.0 11.3 0.00 0.00 0.00 70 1012.3
20260503170654 14 174 4.8 11.3 0.00 0.00 0.00 72 1012.2
20260503170151 14 162 8.0 8.0 0.00 0.00 0.00 72 1012.2
20260503160112 12 190 8.0 9.7 0.00 0.00 0.00 85 1012.3
20260503150542 12 166 8.0 9.7 0.00 0.00 0.00 92 1011.9
20260503130932 11 180 8.0 8.0 0.00 0.00 0.00 94 1010.6
20260503130430 11 175 8.0 9.7 0.00 0.00 0.00 93 1010.5
20260503110823 11 165 6.4 8.0 0.00 0.00 0.00 93 1010.5
20260503110320 11 176 6.4 8.0 0.00 0.00 0.00 93 1010.4
20260503100246 11 194 6.4 8.0 0.00 0.00 0.00 88 1010.4
20260503090205 12 180 6.4 9.7 0.00 0.00 0.00 85 1010.6
20260503081636 12 178 6.4 9.7 0.00 0.00 0.00 83 1011.0
20260503081132 12 182 6.4 9.7 0.00 0.00 0.00 83 1011.0
20260503080628 12 180 4.8 8.0 0.00 0.00 0.00 82 1010.8
20260503080125 12 178 6.4 8.0 0.00 0.00 0.00 82 1011.1
20260503072602 12 170 6.4 11.3 0.00 0.00 0.00 81 1011.1
20260503072059 12 164 8.0 8.0 0.00 0.00 0.00 81 1011.0
20260503071556 12 164 9.7 11.3 0.00 0.00 0.00 81 1011.0
20260503071053 12 189 8.0 8.0 0.00 0.00 0.00 81 1011.0
20260503070549 12 171 6.4 9.7 0.00 0.00 0.00 81 1010.8
20260503055009 12 181 6.4 8.0 0.00 0.00 0.00 80 1011.2
20260503054504 12 181 9.7 16.1 0.00 0.00 0.00 79 1011.1
20260503054002 12 177 8.0 8.0 0.00 0.00 0.00 79 1011.2
20260503053500 12 177 6.4 11.3 0.00 0.00 0.00 80 1011.3
20260503052956 12 169 8.0 11.3 0.00 0.00 0.00 79 1011.3
20260503052454 13 164 8.0 9.7 0.00 0.00 0.00 79 1011.2
20260503051950 13 184 8.0 9.7 0.00 0.00 0.00 79 1011.2
20260503051446 13 171 8.0 9.7 0.00 0.00 0.00 79 1011.3
20260503050943 13 182 8.0 8.0 0.00 0.00 0.00 79 1011.3
20260503050439 13 164 8.0 9.7 0.00 0.00 0.00 79 1011.4
20260503045937 13 176 6.4 11.3 0.00 0.00 0.00 79 1011.3
20260503045434 13 185 4.8 9.7 0.00 0.00 0.00 78 1011.5
20260503044931 13 167 9.7 9.7 0.00 0.00 0.00 78 1011.2
20260503044427 13 165 9.7 9.7 0.00 0.00 0.00 79 1011.2
20260503043925 13 162 8.0 12.9 0.00 0.00 0.00 79 1011.1
20260503043421 13 180 6.4 11.3 0.00 0.00 0.00 79 1011.0
20260503042918 13 174 9.7 9.7 0.00 0.00 0.00 78 1011.0
20260503042415 13 179 6.4 9.7 0.00 0.00 0.00 78 1010.7
20260503041911 13 176 6.4 9.7 0.00 0.00 0.00 78 1010.8
20260503041408 13 172 8.0 9.7 0.00 0.00 0.00 78 1010.9
20260503040905 13 175 8.0 8.0 0.00 0.00 0.00 79 1010.8
20260503040403 13 166 8.0 11.3 0.00 0.00 0.00 78 1010.8
20260503035900 13 214 8.0 9.7 0.00 0.00 0.00 79 1010.7
20260503035357 13 182 8.0 9.7 0.00 0.00 0.00 78 1010.7
20260503034854 13 176 8.0 9.7 0.00 0.00 0.00 78 1010.6
20260503034351 13 189 6.4 8.0 0.00 0.00 0.00 78 1010.4
20260503033848 14 168 9.7 14.5 0.00 0.00 0.00 78 1010.3
20260503033346 14 190 6.4 8.0 0.00 0.00 0.00 79 1010.3
20260503032844 14 174 6.4 8.0 0.00 0.00 0.00 77 1010.2
20260503032343 14 180 8.0 8.0 0.00 0.00 0.00 77 1010.3
20260503031839 14 165 8.0 9.7 0.00 0.00 0.00 77 1010.2
20260503031337 14 177 6.4 8.0 0.00 0.00 0.00 78 1010.2
20260503030833 15 194 6.4 8.0 0.00 0.00 0.00 78 1010.1
20260503030330 15 170 8.0 9.7 0.00 0.00 0.00 78 1010.1
20260503025827 15 180 8.0 8.0 0.00 0.00 0.00 77 1010.0
20260503025324 15 187 6.4 9.7 0.00 0.00 0.00 76 1010.2
20260503024821 15 171 8.0 9.7 0.00 0.00 0.00 77 1010.1
20260503024318 15 190 6.4 6.4 0.00 0.00 0.00 75 1010.0
20260503023814 15 179 6.4 6.4 0.00 0.00 0.00 76 1009.8
20260503023312 15 178 6.4 9.7 0.00 0.00 0.00 75 1009.9
20260503022808 15 176 6.4 9.7 0.00 0.00 0.00 75 1009.8
20260503022308 15 180 6.4 8.0 0.00 0.00 0.00 74 1009.6
20260503021805 15 199 8.0 9.7 0.00 0.00 0.00 73 1009.9
20260503021301 16 174 8.0 9.7 0.00 0.00 0.00 74 1009.9
20260503020759 16 182 6.4 8.0 0.00 0.00 0.00 73 1009.6
20260503020256 16 185 6.4 6.4 0.00 0.00 0.00 73 1009.8
20260503015752 16 194 6.4 8.0 0.00 0.00 0.00 73 1009.8
20260503015249 16 199 6.4 9.7 0.00 0.00 0.00 72 1009.5
20260503014745 16 194 8.0 8.0 0.00 0.00 0.00 72 1009.8
20260503014243 16 180 6.4 8.0 0.00 0.00 0.00 72 1009.6
20260503013740 16 189 6.4 9.7 0.00 0.00 0.00 72 1009.7
20260503013238 17 195 6.4 8.0 0.00 0.00 0.00 72 1009.9
20260503012735 17 168 8.0 9.7 0.00 0.00 0.00 71 1009.8
20260503012232 17 186 8.0 9.7 0.00 0.00 0.00 71 1009.5
20260503011729 17 189 6.4 8.0 0.00 0.00 0.00 70 1009.6
20260503011226 17 179 6.4 8.0 0.00 0.00 0.00 69 1009.5
20260503010722 17 190 8.0 9.7 0.00 0.00 0.00 71 1009.5
20260503010219 17 171 8.0 8.0 0.00 0.00 0.00 72 1009.8
20260503005716 17 178 6.4 9.7 0.00 0.00 0.00 73 1009.6
20260503005213 17 196 8.0 8.0 0.00 0.00 0.00 70 1009.5
20260503004709 17 176 6.4 8.0 0.00 0.00 0.00 70 1009.7
20260503004209 17 183 8.0 9.7 0.00 0.00 0.00 71 1009.6
20260503003705 17 179 8.0 9.7 0.00 0.00 0.00 70 1009.6
20260503003202 17 176 8.0 8.0 0.00 0.00 0.00 70 1009.6
20260503002658 18 173 8.0 9.7 0.00 0.00 0.00 70 1009.5
20260503002155 18 200 6.4 9.7 0.00 0.00 0.00 64 1009.7
20260503001651 20 181 9.7 9.7 0.00 0.00 0.00 66 1009.6
20260503001148 20 191 6.4 9.7 0.00 0.00 0.00 64 1009.6
20260503000646 20 212 8.0 9.7 0.00 0.00 0.00 62 1009.6
20260503000143 20 189 8.0 9.7 0.00 0.00 0.00 62 1009.6
20260502235640 19 185 6.4 8.0 0.00 0.00 0.00 64 1009.7
20260502235138 20 175 9.7 9.7 0.00 0.00 0.00 62 1009.9
20260502234633 20 213 8.0 9.7 0.00 0.00 0.00 63 1009.8
20260502234131 20 210 6.4 11.3 0.00 0.00 0.00 60 1010.1
20260502233626 21 200 8.0 8.0 0.00 0.00 0.00 58 1009.9
20260502233123 20 202 6.4 9.7 0.00 0.00 0.00 60 1010.3
20260502232619 20 188 6.4 9.7 0.00 0.00 0.00 60 1009.8
20260502232117 20 176 9.7 9.7 0.00 0.00 0.00 59 1010.1
20260502231613 20 176 8.0 8.0 0.00 0.00 0.00 59 1010.2
20260502231112 20 186 8.0 8.0 0.00 0.00 0.00 61 1010.2
20260502230610 19 202 6.4 8.0 0.00 0.00 0.00 64 1010.3
20260502230108 19 156 9.7 9.7 0.00 0.00 0.00 66 1010.6
20260502225603 19 180 8.0 9.7 0.00 0.00 0.00 63 1010.4
20260502225100 20 212 4.8 11.3 0.00 0.00 0.00 60 1010.6
20260502224556 20 165 9.7 9.7 0.00 0.00 0.00 61 1010.8
20260502224053 20 218 8.0 8.0 0.00 0.00 0.00 64 1010.9
20260502223551 19 224 8.0 11.3 0.00 0.00 0.00 62 1011.0
20260502223050 19 199 8.0 9.7 0.00 0.00 0.00 63 1011.2
20260502222547 18 201 6.4 9.7 0.00 0.00 0.00 65 1011.1
20260502222043 18 171 6.4 11.3 0.00 0.00 0.00 68 1011.3
20260502221538 17 154 9.7 11.3 0.00 0.00 0.00 69 1011.5
20260502221036 18 147 11.3 14.5 0.00 0.00 0.00 67 1011.4
20260502220532 17 156 9.7 9.7 0.00 0.00 0.00 68 1011.6
20260502220028 18 172 9.7 9.7 0.00 0.00 0.00 69 1011.9
20260502215526 17 178 6.4 8.0 0.00 0.00 0.00 71 1011.9
20260502215022 17 185 6.4 9.7 0.00 0.00 0.00 74 1012.0
20260502214519 16 164 9.7 11.3 0.00 0.00 0.00 76 1012.0
20260502214017 16 173 8.0 9.7 0.00 0.00 0.00 76 1012.0
20260502213513 16 172 8.0 11.3 0.00 0.00 0.00 77 1012.2
20260502213012 16 178 6.4 8.0 0.00 0.00 0.00 76 1012.2
20260502212510 16 173 8.0 9.7 0.00 0.00 0.00 76 1012.1
20260502212008 16 186 6.4 8.0 0.00 0.00 0.00 76 1012.2
20260502211503 16 174 6.4 8.0 0.00 0.00 0.00 76 1012.0
20260502211000 16 207 8.0 9.7 0.00 0.00 0.00 75 1012.2
20260502210457 16 185 6.4 6.4 0.00 0.00 0.00 77 1012.4
20260502205954 15 171 8.0 9.7 0.00 0.00 0.00 77 1012.3
20260502205450 15 196 4.8 9.7 0.00 0.00 0.00 76 1012.3
20260502204948 15 193 4.8 8.0 0.00 0.00 0.00 76 1012.3
20260502204444 15 186 6.4 9.7 0.00 0.00 0.00 76 1012.5
20260502203942 15 169 8.0 11.3 0.00 0.00 0.00 77 1012.6
20260502203439 15 216 9.7 12.9 0.00 0.00 0.00 77 1012.7
20260502202935 16 208 4.8 6.4 0.00 0.00 0.00 75 1012.6
20260502202432 16 178 6.4 8.0 0.00 0.00 0.00 76 1012.8
20260502201931 15 157 6.4 8.0 0.00 0.00 0.00 76 1012.8
20260502201426 15 174 6.4 11.3 0.00 0.00 0.00 79 1013.0
20260502200923 15 182 8.0 11.3 0.00 0.00 0.00 79 1013.2
20260502200419 15 159 8.0 11.3 0.00 0.00 0.00 79 1013.2
20260502195917 15 162 9.7 9.7 0.00 0.00 0.00 79 1013.2
20260502195414 15 185 4.8 6.4 0.00 0.00 0.00 78 1013.3
20260502194910 15 181 6.4 8.0 0.00 0.00 0.00 81 1013.4
20260502194407 15 207 6.4 8.0 0.00 0.00 0.00 79 1013.4